Patterson, LA

2:46 AM CST on November 18, 2019 (GMT -0600)
Williams Memorial

Weather History for KPTN - September, 2019

Change the Weather History Date:

Wednesday, September 25, 2019

  Actual Average Record
Temperature  
Mean Temperature 80 °F -  
Max Temperature 88 °F 82 °F 93 °F (1998)
Min Temperature 72 °F 65 °F 59 °F (2001)
Cooling Degree Days 16    
Growing Degree Days 30 (Base 50)    
Moisture  
Dew Point 69 °F    
Average Humidity 63    
Maximum Humidity 84    
Minimum Humidity 49    
Precipitation  
Precipitation 0.00 in - - ()
Sea Level Pressure  
Sea Level Pressure 29.94 in    
Wind  
Wind Speed 2 mph (SSE)    
Max Wind Speed 8 mph    
Max Gust Speed -    
Visibility 9 miles    
Events      
Averages and records for this station are not official NWS values.
T = Trace of Precipitation, MM = Missing Value Source: NWS Daily Summary

Daily Weather History Graph

Daily Weather History Graph

Search for Another Location

Airport or City:

Astronomy

Sep. 25, 2019 Rise Set
Actual Time 6:55 AM CDT 6:58 PM CDT
Civil Twilight 6:31 AM CDT 7:22 PM CDT
Nautical Twilight 6:03 AM CDT 7:49 PM CDT
Astronomical Twilight 5:35 AM CDT 8:17 PM CDT
Moon 3:12 AM CDT (9/25) 5:10 PM CDT (9/25)
Length of Visible Light 12h 50m
Length of Day
12h 03m
Waning Crescent, 14% of the Moon is Illuminated
Sep 25
Waning Crescent
Sep 28
New
Oct 5
First Quarter
Oct 13
Full
Oct 21
Last Quarter

Hourly Weather History & Observations

Time (CDT) Temp. Heat Index Dew Point Humidity Pressure Visibility Wind Dir Wind Speed Gust Speed Precip Events Conditions
12:13 AM - - - N/A% 29.93 in 10.0 mi Calm Calm - N/A   Clear
12:56 AM - - - N/A% 29.93 in 10.0 mi Calm Calm - N/A   Clear
1:56 AM - - - N/A% 29.92 in 10.0 mi Calm Calm - N/A   Clear
2:56 AM - - - N/A% 29.92 in 10.0 mi Calm Calm - N/A   Clear
3:56 AM - - - N/A% 29.92 in 10.0 mi Calm Calm - N/A   Clear
4:56 AM - - - N/A% 29.93 in 10.0 mi Calm Calm - N/A   Clear
5:56 AM - - - N/A% 29.94 in 10.0 mi Calm Calm - N/A   Clear
6:56 AM - - - N/A% 29.95 in 4.0 mi East 3.5 mph - N/A   Haze
7:12 AM - - - N/A% 29.95 in 1.5 mi Calm Calm - N/A   Clear
7:31 AM - - - N/A% 29.96 in 7.0 mi NE 4.6 mph - N/A   Clear
7:56 AM - - - N/A% 29.97 in 10.0 mi Calm Calm - N/A   Clear
8:56 AM 79.0 °F - 73.9 °F 84% 29.99 in 10.0 mi East 3.5 mph - N/A   Clear
9:56 AM 82.9 °F 87.0 °F 70.0 °F 65% 29.99 in 10.0 mi Calm Calm - N/A   Clear
10:56 AM 84.9 °F 90.1 °F 71.1 °F 63% 29.99 in 10.0 mi Variable 4.6 mph - N/A   Partly Cloudy
11:56 AM 87.1 °F 91.3 °F 69.1 °F 55% 29.97 in 10.0 mi Variable 4.6 mph - N/A   Clear
12:56 PM 88.0 °F 91.4 °F 68.0 °F 51% 29.95 in 10.0 mi ESE 8.1 mph - N/A   Partly Cloudy
1:56 PM 88.0 °F 92.1 °F 69.1 °F 53% 29.92 in 10.0 mi South 8.1 mph - N/A   Clear
2:56 PM 88.0 °F 92.1 °F 69.1 °F 53% 29.90 in 10.0 mi Variable 5.8 mph - N/A   Partly Cloudy
3:56 PM 87.1 °F 90.6 °F 68.0 °F 53% 29.90 in 10.0 mi Variable 3.5 mph - N/A   Clear
4:56 PM 88.0 °F 90.7 °F 66.9 °F 49% 29.89 in 10.0 mi SSW 6.9 mph - N/A   Clear
5:56 PM 84.9 °F 89.4 °F 70.0 °F 61% 29.89 in 10.0 mi South 5.8 mph - N/A   Clear
6:56 PM 80.1 °F 82.9 °F 69.1 °F 69% 29.90 in 10.0 mi SSW 5.8 mph - N/A   Clear
7:56 PM 75.9 °F - 69.1 °F 79% 29.91 in 10.0 mi South 4.6 mph - N/A   Clear
8:56 PM 75.0 °F - 70.0 °F 84% 29.94 in 10.0 mi Calm Calm - N/A   Clear
9:56 PM 73.0 °F - - N/A% 29.95 in 10.0 mi Calm Calm - N/A   Clear
10:56 PM 72.0 °F - - N/A% 29.95 in 10.0 mi Calm Calm - N/A   Clear
11:56 PM - - - N/A% 29.95 in 10.0 mi Calm Calm - N/A   Clear